Location: Vihti�l�
(61.3833°N, 23.0667°E)
Time: 05:51:09
(UTC+00:00)

Cosmos 1745 Rocket - Pass Details

Date: 29 November 2020
Orbit: 952 x 999 km, 83.0° (Epoch: 22 January)

Event Time Altitude Azimuth Distance (km) Brightness Sun altitude
Exits shadow 02:59:30 57° 200° (SSW) 1,163 4.2 -27.9°
Maximum altitude 03:00:56 86° 283° (WNW) 1,008 3.9 -27.8°
Drops below altitude 10° 03:07:22 10° 14° (NNE) 2,784 6.6 -27.0°
Sets 03:09:55 0° 15° (NNE) 3,738 7.3 -26.7°
